Tracking 29510 objects as of 15-Sep-2024
HD Live streaming from Space Station
objects crossing your sky now

ARIANE 44L DEB

Track ARIANE 44L DEB now!
10-day predictions


NORAD ID: 24751
Int'l Code: 1991-003K
Perigee: 498.6 km
Apogee: 23,045.8 km
Inclination: 7.8 °
Period: 405.4 minutes
Semi major axis: 18143 km
RCS: 0.9341 m2 (medium)
Launch date: January 15, 1991
Source: France (FR)
Launch site: FRENCH GUIANA (FRGUI)

Note: This is SATELLITE DEBRIS
Your satellite tracking list
Your tracking list is empty




NASA's NSSDC Master Catalog

Two Line Element Set (TLE):
1 24751U 91003K   24258.72826759  .00004102  00000-0  11925-1 0  9995
2 24751   7.8178 264.9937 6213676   7.6301 358.6464  3.55248121331891
Source of the keplerian elements: AFSPC